LORIS

Last updated on Thu Jun 01 2023 00:02:07 GMT+0000 (Coordinated Universal Time)

1 55125U 98067US 23151.57174162 .11903242 12449-4 45868-3 0 9993 2 55125 51.6126 28.3824 0008379 251.2662 108.7457 16.43420480 24122

Satellite not in orbit